Time,TemperatureF,DewpointF,PressureIn,WindDirection,WindDirectionDegrees,WindSpeedMPH,WindSpeedGustMPH,Humidity,HourlyPrecipIn,Conditions,Clouds,dailyrainin,SoftwareType,DateUTC
2013-08-17 00:23:00,58.0,56.0,-100.00,NE,50,1.0,2.0,92,0.00,,,-99.99,,2013-08-17 04:23:00,
2013-08-17 00:53:00,57.0,55.0,-100.00,NNE,30,1.0,1.0,93,0.00,,,-99.99,,2013-08-17 04:53:00,
2013-08-17 01:22:00,56.0,55.0,-100.00,NE,35,1.0,2.0,94,0.00,,,-99.99,,2013-08-17 05:22:00,
2013-08-17 01:51:00,55.0,54.0,-100.00,WNW,300,0.0,1.0,96,0.00,,,-99.99,,2013-08-17 05:51:00,
2013-08-17 02:21:00,54.0,53.0,-100.00,WNW,300,0.0,0.0,96,0.00,,,-99.99,,2013-08-17 06:21:00,
2013-08-17 02:51:00,54.0,53.0,-100.00,North,350,0.0,1.0,96,0.00,,,-99.99,,2013-08-17 06:51:00,
2013-08-17 03:22:00,53.0,52.0,-100.00,North,350,0.0,1.0,97,0.00,,,-99.99,,2013-08-17 07:22:00,
2013-08-17 03:52:00,53.0,52.0,-100.00,NE,45,2.0,2.0,97,0.00,,,-99.99,,2013-08-17 07:52:00,
2013-08-17 04:21:00,53.0,52.0,-100.00,NE,45,1.0,1.0,98,0.00,,,-99.99,,2013-08-17 08:21:00,
2013-08-17 04:52:00,52.0,51.0,-100.00,NE,45,0.0,1.0,98,0.00,,,-99.99,,2013-08-17 08:52:00,
2013-08-17 05:21:00,51.0,51.0,-100.00,North,5,0.0,0.0,98,0.00,,,-99.99,,2013-08-17 09:21:00,
2013-08-17 05:53:00,51.0,51.0,-100.00,NE,40,1.0,2.0,98,0.00,,,-99.99,,2013-08-17 09:53:00,
2013-08-17 06:23:00,50.0,49.0,-100.00,WSW,245,0.0,1.0,98,0.00,,,-99.99,,2013-08-17 10:23:00,
2013-08-17 06:52:00,50.0,50.0,-100.00,NE,35,1.0,2.0,98,0.00,,,-99.99,,2013-08-17 10:52:00,
2013-08-17 07:22:00,50.0,50.0,-100.00,NNE,30,2.0,2.0,98,0.00,,,-99.99,,2013-08-17 11:22:00,
2013-08-17 07:52:00,51.0,51.0,-100.00,NNE,20,1.0,1.0,98,0.00,,,-99.99,,2013-08-17 11:52:00,
2013-08-17 08:21:00,54.0,53.0,-100.00,East,80,0.0,1.0,98,0.00,,,-99.99,,2013-08-17 12:21:00,
2013-08-17 08:52:00,56.0,55.0,-100.00,NE,35,3.0,3.0,98,0.00,,,-99.99,,2013-08-17 12:52:00,
2013-08-17 09:21:00,59.0,58.0,-100.00,NNE,25,2.0,6.0,98,0.00,,,-99.99,,2013-08-17 13:21:00,
2013-08-17 09:52:00,62.0,60.0,-100.00,NE,35,5.0,7.0,91,0.00,,,-99.99,,2013-08-17 13:52:00,
2013-08-17 10:21:00,68.0,59.0,-100.00,NE,35,7.0,9.0,75,0.00,,,-99.99,,2013-08-17 14:21:00,
2013-08-17 10:32:00,68.0,59.0,-100.00,NE,35,7.0,9.0,75,0.00,,,-99.99,,2013-08-17 14:32:00,
2013-08-17 10:42:00,68.0,59.0,-100.00,NE,35,7.0,9.0,75,0.00,,,-99.99,,2013-08-17 14:42:00,
2013-08-17 10:52:00,68.0,59.0,-100.00,NE,35,7.0,9.0,75,0.00,,,-99.99,,2013-08-17 14:52:00,
2013-08-17 11:12:00,69.0,58.0,-100.00,NE,55,6.0,8.0,69,0.00,,,-99.99,,2013-08-17 15:12:00,
2013-08-17 11:22:00,70.0,58.0,-100.00,NE,40,5.0,9.0,66,0.00,,,-99.99,,2013-08-17 15:22:00,
2013-08-17 11:54:00,71.0,59.0,-100.00,NNE,25,6.0,9.0,65,0.00,,,-99.99,,2013-08-17 15:54:00,
2013-08-17 12:23:00,74.0,58.0,-100.00,ENE,65,7.0,12.0,58,0.00,,,-99.99,,2013-08-17 16:23:00,
2013-08-17 12:53:00,76.0,57.0,-100.00,ENE,70,7.0,16.0,50,0.00,,,-99.99,,2013-08-17 16:53:00,
2013-08-17 13:02:00,76.0,57.0,-100.00,ENE,70,7.0,16.0,50,0.00,,,-99.99,,2013-08-17 17:02:00,
2013-08-17 13:12:00,76.0,57.0,-100.00,ENE,70,7.0,16.0,50,0.00,,,-99.99,,2013-08-17 17:12:00,
2013-08-17 13:23:00,76.0,56.0,-100.00,ESE,110,7.0,11.0,49,0.00,,,-99.99,,2013-08-17 17:23:00,
2013-08-17 13:52:00,76.0,56.0,-100.00,ENE,75,7.0,12.0,50,0.00,,,-99.99,,2013-08-17 17:52:00,
2013-08-17 14:21:00,78.0,57.0,-100.00,ENE,65,7.0,12.0,49,0.00,,,-99.99,,2013-08-17 18:21:00,
2013-08-17 14:52:00,78.0,57.0,-100.00,East,90,9.0,15.0,48,0.00,,,-99.99,,2013-08-17 18:52:00,
2013-08-17 15:11:00,80.0,58.0,-100.00,SE,125,7.0,13.0,47,0.00,,,-99.99,,2013-08-17 19:11:00,
2013-08-17 15:21:00,79.0,56.0,-100.00,NE,45,4.0,9.0,45,0.00,,,-99.99,,2013-08-17 19:21:00,
2013-08-17 15:52:00,81.0,54.0,-100.00,ENE,65,7.0,12.0,40,0.00,,,-99.99,,2013-08-17 19:52:00,
2013-08-17 16:21:00,81.0,55.0,-100.00,East,95,9.0,11.0,40,0.00,,,-99.99,,2013-08-17 20:21:00,
2013-08-17 16:52:00,81.0,54.0,-100.00,SE,125,4.0,15.0,39,0.00,,,-99.99,,2013-08-17 20:52:00,
2013-08-17 17:22:00,78.0,54.0,-100.00,East,90,9.0,12.0,43,0.00,,,-99.99,,2013-08-17 21:22:00,
2013-08-17 17:53:00,79.0,56.0,-100.00,ENE,75,11.0,13.0,45,0.00,,,-99.99,,2013-08-17 21:53:00,
2013-08-17 18:23:00,77.0,58.0,-100.00,East,80,11.0,14.0,52,0.00,,,-99.99,,2013-08-17 22:23:00,
2013-08-17 18:52:00,76.0,59.0,-100.00,ENE,75,9.0,12.0,55,0.00,,,-99.99,,2013-08-17 22:52:00,
2013-08-17 19:22:00,74.0,58.0,-100.00,ENE,75,8.0,14.0,56,0.00,,,-99.99,,2013-08-17 23:22:00,
2013-08-17 19:52:00,74.0,58.0,-100.00,ENE,75,7.0,9.0,58,0.00,,,-99.99,,2013-08-17 23:52:00,
2013-08-17 20:12:00,73.0,58.0,-100.00,ENE,70,6.0,9.0,59,0.00,,,-99.99,,2013-08-18 00:12:00,
2013-08-17 20:21:00,72.0,58.0,-100.00,ENE,75,6.0,9.0,61,0.00,,,-99.99,,2013-08-18 00:21:00,
2013-08-17 20:52:00,68.0,59.0,-100.00,ENE,65,4.0,6.0,71,0.00,,,-99.99,,2013-08-18 00:52:00,
2013-08-17 21:21:00,66.0,59.0,-100.00,NE,50,4.0,5.0,79,0.00,,,-99.99,,2013-08-18 01:21:00,
2013-08-17 21:52:00,65.0,60.0,-100.00,NE,40,4.0,4.0,83,0.00,,,-99.99,,2013-08-18 01:52:00,
2013-08-17 22:21:00,64.0,59.0,-100.00,NE,55,4.0,6.0,85,0.00,,,-99.99,,2013-08-18 02:21:00,
2013-08-17 22:52:00,63.0,59.0,-100.00,NE,45,4.0,4.0,86,0.00,,,-99.99,,2013-08-18 02:52:00,
2013-08-17 23:21:00,62.0,58.0,-100.00,NE,35,3.0,4.0,86,0.00,,,-99.99,,2013-08-18 03:21:00,
2013-08-17 23:53:00,63.0,58.0,-100.00,NE,35,3.0,6.0,84,0.00,,,-99.99,,2013-08-18 03:53:00,